Location: Forst
(46.9333°N, 15.4333°E)
Time: 05:04:34
(UTC+00:00)

Lacrosse 5 rocket - Pass Details

Date: 24 April 2021
Orbit: 460 x 634 km, 57.0° (Epoch: 12 May)

Event Time Altitude Azimuth Distance (km) Brightness Sun altitude
Rises 22:09:41 0° 304° (WNW) 2,807 5.6 -29.0°
Reaches altitude 10° 22:12:01 10° 296° (WNW) 1,931 4.5 -29.1°
Enters shadow 22:13:33 20° 286° (WNW) 1,405 3.6 -29.1°
